Location: Bijele Vode
(45.2833°N, 16.2000°E)
Time: 23:31:47
(UTC+00:00)

Lacrosse 5 rocket - Pass Details

Date: 22 January 2021
Orbit: 465 x 630 km, 57.0° (Epoch: 06 March)

Event Time Altitude Azimuth Distance (km) Brightness Sun altitude
Exits shadow 05:06:06 24° 298° (WNW) 1,096 2.3 -13.9°
Maximum altitude 05:08:16 60° 225° (SW) 572 1.2 -13.6°
Drops below altitude 10° 05:11:56 10° 145° (SE) 1,656 4.5 -12.9°
Sets 05:14:03 0° 142° (SE) 2,514 5.6 -12.6°
